www.pogodaiklimat.ru

Погода и климат >> Архив погоды >> Канада >> Hanbury River ARS


ПОГОДА в Hanbury River ARS

  • Прогноз погоды в Hanbury River ARS
  • Монитор погоды в Hanbury River ARS
  • Климат города

АРХИВ ПОГОДЫ в Hanbury River ARS

Время (UTC), дата Ветер
(напр.,м/с)
 
Видим.   Явления Облачность Т
(С)
Тd
(С)
f
(%)
Тe
(С)
Тes
(С)
Комфортность P
(гПа)
Po
(гПа)
Тmin
(С)
Tmax
(С)
R
(мм)
R24
(мм)
S
(см)
21 12.09 0 н/о н/о +7.8 -1.0 54 1014.2 974.8
00 13.09 0 н/о н/о +8.6 +0.5 57 1014.5 975.1 +2.7 +9.1
03 13.09 0 н/о н/о +5.6 +2.1 78 1015.0 975.6
06 13.09 0 н/о н/о +5.5 +3.1 85 1015.1 975.7 +2.7 +9.1
09 13.09 0 н/о н/о +6.2 +4.3 88 1015.2 975.9
12 13.09 0 н/о н/о +5.6 +3.8 88 1015.5 976.2 +5.0 +9.1
15 13.09 0 н/о н/о +6.9 +4.5 85 1015.7 976.3
18 13.09 0 н/о н/о +8.0 +5.3 83 1015.7 976.4 +5.0 +8.1
21 13.09 0 н/о н/о +9.3 +4.0 69 1016.2 976.9
00 14.09 0 н/о н/о +8.1 +4.5 78 1017.0 977.6 +5.0 +9.3
03 14.09 0 н/о н/о +5.0 +3.1 88 1018.4 978.9
06 14.09 0 н/о н/о +4.1 +2.3 88 1019.5 980.0 +4.1 +9.3
09 14.09 0 н/о н/о +2.5 +0.6 87 1020.8 981.2
12 14.09 0 н/о н/о -0.5 -1.5 93 1021.8 982.0 -0.5 +9.3
15 14.09 0 н/о н/о +2.1 -0.5 83 1022.9 983.0
18 14.09 0 н/о н/о +5.6 -0.7 64 1022.5 982.7 -0.5 +6.0
21 14.09 0 н/о н/о +8.5 -1.7 49 1022.2 982.5
00 15.09 0 н/о н/о +8.9 +0.3 55 1021.9 982.1 -0.5 +9.7
03 15.09 0 н/о н/о +4.2 +1.9 85 1021.6 981.7
06 15.09 0 н/о н/о +5.2 +2.8 84 1020.6 981.0 -0.5 +9.7
09 15.09 0 н/о н/о +6.7 +4.1 83 1020.2 980.7
12 15.09 0 н/о н/о +6.6 +4.7 88 1019.6 980.2 +3.4 +9.7
15 15.09 0 н/о н/о +8.0 +4.1 76 1019.3 979.8
18 15.09 0 н/о н/о +9.4 +5.0 74 1019.1 979.7 +3.4 +9.4
21 15.09 0 н/о н/о +11.4 +4.1 61 1019.0 979.7
00 16.09 0 н/о н/о +11.6 +3.7 58 1019.4 980.1 +4.5 +12.5
03 16.09 0 н/о н/о +9.6 +4.5 70 1019.8 980.4
06 16.09 0 н/о н/о +8.2 +4.0 75 1020.1 980.7 +4.5 +12.5
09 16.09 0 н/о н/о +6.5 +4.4 86 1020.3 980.9
12 16.09 0 н/о н/о +3.6 +2.5 93 1020.5 981.0 +3.4 +12.5
15 16.09 0 н/о н/о +7.5 +5.1 85 1019.9 980.5
21 16.09 0 н/о н/о +15.6 +2.4 41 1017.6 978.5
00 17.09 0 н/о н/о +14.6 +2.5 44 1016.5 977.3
03 17.09 0 н/о н/о +8.2 +2.2 66 1015.8 976.5
06 17.09 0 н/о н/о +6.6 +3.2 79 1015.3 976.1
09 17.09 0 н/о н/о +5.7 +2.7 81 1014.7 975.7
12 17.09 0 н/о н/о +5.0 +2.4 83 1013.8 974.7 +5.0
15 17.09 0 н/о н/о +8.7 +3.6 70 1013.1 974.0
18 17.09 0 н/о н/о +13.7 +2.2 46 1012.8 973.8 +13.8
21 17.09 0 н/о н/о +15.0 +1.2 39 1012.1 973.2
00 18.09 0 н/о н/о +14.0 +1.2 42 1011.5 972.5 +4.8 +15.3
03 18.09 0 н/о н/о +6.3 +1.8 73 1011.7 972.6
06 18.09 0 н/о н/о +4.8 +2.2 83 1011.7 972.7 +4.6 +15.3
09 18.09 0 н/о н/о +2.5 +1.2 91 1011.6 972.6
12 18.09 0 н/о н/о +3.0 +2.1 94 1011.5 972.4 +1.4 +15.3
15 18.09 0 н/о н/о +7.5 +4.3 80 1011.8 972.6
18 18.09 0 н/о н/о +12.3 +4.5 59 1011.8 972.7 +1.4 +12.5
21 18.09 0 н/о н/о +15.4 +1.5 39 1011.4 972.4
00 19.09 0 н/о н/о +13.9 +3.2 48 1011.8 972.7
03 19.09 0 н/о н/о +7.1 +2.0 70 1012.3 973.1
06 19.09 0 н/о н/о +2.6 +1.0 89 1013.1 973.9
09 19.09 0 н/о н/о +3.2 +2.1 92 1013.6 974.5
12 19.09 0 н/о н/о +1.3 +1.2 99 1014.2 975.0 -0.0
15 19.09 0 н/о н/о +6.1 +3.8 85 1015.0 975.7
18 19.09 0 н/о н/о +13.2 +1.7 46 1015.7 976.4 +13.4

 

Местоположение метеостанции Hanbury River ARS (Канада): широта 63.58 долгота -105.15 высота над уровнем моря 317 м.

В архиве по умолчанию представлена погода в Hanbury River ARS за последнюю неделю. Архивные данные за месяц целиком и за предыдущие месяцы, начиная с января 2011 года, Вы можете получить, выбрав интересующий диапазон дат из раскрывающегося списка и нажав кнопку "Ввод!".

Внимание! Время в таблицах - всемирное. Для получения местного времени необходимо прибавить поправку, которая в Hanbury River ARS равна -7 ч.

Смотрите также архив погоды в соседних городах и на ближайших метеорологических станциях:

Погода в Dubawnt Lake (Канада) (176 км)
Погода в Robertson Lake (Канада) (215 км)
Погода в Fort Reliance (aut) (Канада) (221 км)
Погода в Porter Lake (Канада) (270 км)
Погода в Ekati (Канада) (293 км)
Погода в Lustel Ke A (Канада) (304 км)
Погода в Lupin (Канада) (377 км)
Погода в Lupin (maps) (Канада) (377 км)
Погода в Baker Lake Airport (Канада) (451 км)
Погода в Baker Lake Climate (Канада) (454 км)

Пояснения к столбцам:

Ветер - указаны скорость ветра в м/с - средняя за 10 мин, порывы в срок и между сроками (в фигурных скобках) и направление, откуда дует ветер: С - северный, СВ - северо-восточный, В - восточный, ЮВ - юго-восточный, Ю - южный, ЮЗ - юго-западный, З - западный, СЗ - северо-западный.
Видимость - горизонтальная дальность видимости в метрах или километрах. При видимости от 1 до 10 км при отсутствии осадков обычно наблюдается дымка, при ухудшении видимости до 1 км и менее - туман. В сухую погоду видимость может ухудшаться дымом, пылью или мглою.
Явления - указаны атмосферные явления, наблюдавшиеся в срок или в последний час перед сроком; фигурными скобками обозначены явления, наблюдавшиеся между сроками (за 1-3 часа до срока); квадратными скобками обозначены град или гололедные отложения с указанием их диаметра в мм.
Облачность - указаны через наклонную черту общая и нижняя облачность в баллах и высота нижней границы облаков в метрах; квадратными скобками обозначены формы облаков: Ci - перистые, Cs - перисто-слоистые, Cc - перисто-кучевые, Ac - высококучевые, As - высокослоистые, Sc - слоисто-кучевые, Ns - слоисто-дождевые, Cu - кучевые, Cb - кучево-дождевые. Подробнее классификацию облаков см. в Атласе облаков (PDF).
T - Температура воздуха - температура, измеренная на высоте 2 м над землей.
Td - Температура точки росы - температура, при понижении до которой содержащийся в воздухе водяной пар достигнет насыщения.
f - Относительная влажность воздуха - влажноcть воздуха, измеренная на высоте 2 м над землей.
Te - Эффективная температура - температура, которую ощущает одетый по сезону человек в тени. Характеристика душности погоды. При расчете учитывается влияние влажности воздуха и скорости ветра на теплоощущения человека.
Tes - Эффективная температура на солнце - температура, которую ощущает человек, с поправкой на солнечный нагрев. Характеристика знойности погоды. Зависит от высоты солнца над горизонтом, облачности и скорости ветра. Ночью, в пасмурную погоду, а также при ветре 12 м/с и более поправка равна нулю.
P - Атмосферное давление - приведенное к уровню моря атмосферное давление.
Po - Атмосферное давление - измеренное на уровне метеостанции атмосферное давление.
Tmin - Минимальная температура - минимум температуры воздуха на высоте 2 м над землей.
Tmax - Максимальная температура - максимум температуры воздуха на высоте 2 м над землей.
R - Количество осадков - Количество выпавших осадков за период времени, мм. При наведении курсора мыши на число - период времени, за который выпало указанное количество осадков.
R24 - Количество осадков - Количество выпавших осадков за 24 часа, мм.
S - Снежный покров - Высота снежного покрова, см. При наведении курсора мыши на число - состояние снежного покрова и степень покрытия местности в баллах.